Date,TemperatureHighF,TemperatureAvgF,TemperatureLowF,DewpointHighF,DewpointAvgF,DewpointLowF,HumidityHigh,HumidityAvg,HumidityLow,PressureMaxIn,PressureMinIn,WindSpeedMaxMPH,WindSpeedAvgMPH,GustSpeedMaxMPH,PrecipitationSumIn
2013-12-1,40.8,38.7,36.1,33.4,31.8,29.1,81,76,73,30.14,29.93,24,10,30,0.00
2013-12-2,38.7,36.5,31.8,36.5,33.3,29.8,94,88,81,29.93,29.85,10,3,11,0.00
2013-12-3,39.0,34.6,30.6,35.8,31.5,27.5,94,89,85,29.94,29.86,13,5,14,0.00
2013-12-4,55.6,49.3,38.7,48.4,43.9,36.5,94,82,71,29.94,29.73,28,6,37,0.00
2013-12-5,63.9,49.9,33.6,59.0,46.0,32.5,96,87,78,30.06,29.67,32,18,36,0.05
2013-12-6,36.0,32.8,28.0,34.0,28.8,25.0,99,86,76,30.29,30.03,25,11,26,0.11
2013-12-7,30.9,26.7,23.9,27.1,20.8,17.2,89,78,69,30.57,30.27,28,14,29,0.00
2013-12-8,29.8,26.4,23.2,26.2,20.4,18.1,86,78,68,30.58,30.05,23,6,25,0.00
2013-12-9,37.4,33.7,28.8,35.8,29.9,21.9,97,86,76,30.05,29.85,40,16,44,0.01
2013-12-10,28.8,26.2,22.3,25.0,19.9,11.3,95,78,52,30.13,29.92,46,22,52,0.00
2013-12-11,25.7,22.4,20.5,23.9,19.0,12.0,97,87,69,30.35,30.13,33,19,35,0.00
2013-12-12,21.0,18.3,14.4,15.3,11.2,7.2,92,74,60,30.38,30.14,37,20,37,0.00
2013-12-13,28.8,23.6,19.6,25.7,19.5,11.5,93,84,70,30.30,30.12,29,14,32,0.00
2013-12-14,31.6,25.1,18.7,31.6,24.4,17.4,100,97,85,30.29,29.63,22,12,22,0.00
2013-12-15,31.6,26.0,20.3,31.6,25.0,15.3,100,96,74,29.96,29.60,46,20,47,0.00
2013-12-16,22.3,19.0,13.6,18.7,15.4,9.9,95,86,73,30.14,29.95,37,12,40,0.00
2013-12-17,28.2,25.3,16.5,26.8,22.6,12.0,96,90,78,30.04,29.88,36,14,37,0.00
2013-12-18,31.3,28.1,26.2,28.8,24.5,19.8,97,86,72,30.09,29.94,33,17,33,0.00
2013-12-19,45.1,40.1,28.9,38.1,31.2,20.8,83,70,60,29.99,29.88,36,13,36,0.00
2013-12-20,54.1,48.0,44.6,53.2,44.8,37.6,98,89,73,29.90,29.72,34,17,39,0.23
2013-12-21,57.7,44.8,34.9,56.1,44.3,34.9,100,98,91,29.78,29.59,33,12,34,0.72
2013-12-22,62.4,40.7,32.7,60.6,40.1,32.7,100,98,85,29.95,29.39,40,17,47,0.68
2013-12-23,39.0,33.9,30.6,38.7,31.0,23.4,99,89,71,30.26,29.93,33,17,33,0.00
2013-12-24,30.4,23.3,19.8,27.1,20.3,14.5,99,88,74,30.50,30.21,33,18,34,0.00
2013-12-25,27.3,21.5,16.5,21.4,15.8,12.4,90,78,70,30.50,30.16,20,6,21,0.00
2013-12-26,31.3,28.5,26.2,99.9,26.3,21.4,99,89,78,30.29,30.05,48,17,58,0.00
2013-12-27,40.3,32.4,26.2,33.6,28.7,20.7,99,86,75,30.29,30.10,30,12,33,0.00
2013-12-28,48.6,42.8,38.7,38.5,34.8,32.5,87,73,65,30.11,29.92,35,17,35,0.00
2013-12-29,45.5,41.1,27.9,40.5,33.6,25.3,97,76,56,29.92,29.61,26,14,28,0.00
2013-12-30,27.7,20.6,18.0,25.2,15.6,11.7,93,81,73,30.24,29.87,32,13,33,0.00
2013-12-31,22.3,19.9,17.8,21.4,16.7,12.7,97,87,77,30.27,30.00,43,18,47,0.00